1410486628946,0.000183403
1410486688946,0.000182831
1410486748946,0.000181837
1410486808946,0.000184099
1410486868946,0.000182066
1410486928946,0.000183640
1410486988946,0.000183040
1410487048946,0.000184911
1410487108946,0.000182960
1410487168946,0.000182287
1410487228946,0.000183042
1410487288946,0.000182631
1410487348946,0.000182942
1410487408946,0.000181088
1410487468946,0.000182031
1410487528946,0.000184357
1410487588946,0.000186581
1410487648946,0.000182822
1410487708946,0.000183324
1410487768946,0.000183766
1410487828946,0.000186106
1410487888946,0.000184152
1410487948946,0.000187182
1410488008946,0.000184786
1410488068946,0.000186453
1410488128946,0.000188266
1410488188946,0.000185785
1410488248946,0.000189066
1410488308946,0.000191503
1410488368946,0.000191879
1410488428946,0.000192939
1410488488946,0.000192408
1410488548946,0.000194034
1410488608946,0.000190351
1410488668946,0.000188386
1410488728946,0.000188396
1410488788946,0.000186801
1410488848946,0.000185644
1410488908946,0.000185987
1410488968946,0.000185448
1410489028946,0.000185955
1410489088946,0.000187105
1410489148946,0.000184572
1410489208946,0.000185663
1410489268946,0.000185896
1410489328946,0.000186001
1410489388946,0.000186594
1410489448946,0.000186096
1410489508946,0.000183793
1410489568946,0.000185206
1410489628946,0.000185563
1410489688946,0.000183379
1410489748946,0.000183774
1410489808946,0.000184812
1410489868946,0.000185097
1410489928946,0.000183327
1410489988946,0.000186445
1410490048946,0.000185086
1410490108946,0.000184408
1410490168946,0.000185155
1410490228946,0.000185955
1410490288946,0.000185931
1410490348946,0.000186677
1410490408946,0.000186181
1410490468946,0.000184202
1410490528946,0.000184257
1410490588946,0.000184910
1410490648946,0.000186287
1410490708946,0.000185948
1410490768946,0.000186607
1410490828948,0.000185959
1410490888948,0.000184358
1410490948948,0.000185452
1410491008948,0.000184813
1410491068948,0.000185262
1410491128948,0.000185433
1410491188948,0.000183621
1410491248948,0.000186085
1410491308948,0.000184905
1410491368948,0.000185445
1410491428948,0.000187015
1410491488948,0.000184483
1410491548948,0.000186119
1410491608948,0.000184159
1410491668948,0.000183755
1410491728948,0.000185967
1410491788948,0.000185795
1410491848948,0.000185148
1410491908948,0.000184244
1410491968948,0.000185624
1410492028948,0.000185530
1410492088948,0.000185109
1410492148948,0.000183734
1410492208948,0.000186424
1410492268948,0.000186360
1410492328948,0.000187243
1410492388948,0.000191369
1410492448948,0.000186461
1410492508948,0.000187193
1410492568948,0.000185787
1410492628948,0.000186711
1410492688948,0.000186772
1410492748948,0.000184692
1410492808948,0.000185848
1410492868948,0.000186164
1410492928948,0.000184933
1410492988948,0.000186751
1410493048948,0.000185087
1410493108948,0.000185462
1410493168948,0.000182535
1410493228948,0.000185639
1410493288948,0.000185889
1410493348948,0.000185911
1410493408948,0.000185924
1410493468948,0.000185965
1410493528948,0.000185361
1410493588948,0.000185778
1410493648948,0.000184453
1410493708948,0.000187297
1410493768948,0.000186386
1410493828948,0.000185088
1410493888948,0.000184374
1410493948948,0.000185144
1410494008948,0.000185774
1410494068948,0.000184369
1410494128948,0.000185926
1410494188948,0.000186739
1410494248948,0.000185602
1410494308948,0.000187356
1410494368948,0.000186830
1410494428949,0.000187356
1410494488949,0.000188973
1410494548949,0.000186634
1410494608949,0.000186584
1410494668949,0.000186681
1410494728949,0.000187015
1410494788949,0.000187367
1410494848949,0.000186220
1410494908949,0.000186197
1410494968949,0.000186962
1410495028949,0.000187233
1410495088949,0.000185013
1410495148949,0.000187234
1410495208949,0.000187247
1410495268949,0.000187521
1410495328949,0.000187385
1410495388949,0.000188522
1410495448949,0.000186143
1410495508949,0.000185630
1410495568949,0.000187672
1410495628949,0.000187061
1410495688949,0.000187012
1410495748949,0.000185625
1410495808949,0.000186294
1410495868949,0.000187503
1410495928949,0.000187390
1410495988949,0.000187115
1410496048949,0.000186866
1410496108949,0.000186065
1410496168949,0.000187482
1410496228949,0.000186399
1410496288949,0.000187929
1410496348949,0.000187267
1410496408949,0.000185379
1410496468949,0.000184567
1410496528949,0.000187807
1410496588949,0.000186432
1410496648949,0.000186787
1410496708949,0.000186134
1410496768949,0.000186655
1410496828949,0.000186697
1410496888949,0.000187178
1410496948949,0.000184398
1410497008949,0.000186070
1410497068949,0.000187075
1410497128949,0.000189289
1410497188949,0.000188294
1410497248949,0.000188449
1410497308949,0.000186844
1410497368949,0.000188137
1410497428949,0.000187213
1410497488949,0.000187118
1410497548949,0.000186085
1410497608949,0.000185710
1410497668949,0.000188852
